Miscellaneous Local Product
Issued by NWS North Platte, NE

Home | Current Version | Previous Version | Text Only | Print | Product List | Glossary On
Versions: 1 2 3 4 5 6 7 8 9 10 11 12 13 14 15 16 17 18 19 20 21 22 23 24 25 26 27 28 29 30 31 32 33 34 35 36 37 38 39 40 41 42 43 44 45 46 47 48 49 50
000
AXUS43 KLBF 061810
MISLBF


WESTERN AND NORTH CENTRAL NEBRASKA HOURLY WEATHER ROUNDUP
NATIONAL WEATHER SERVICE NORTH PLATTE NE
100 PM CDT MON JUL 06 2015

***STATIONS NOT REPORTING VARIABLES SUCH AS SKY/WEATHER OR
PRESSURE ARE PROVIDED BY THE NEBRASKA DEPARTMENT OF
ROADS...RAWS...AND APRS NETWORKS...AND ARE NOT UNDER
NATIONAL WEATHER SERVICE QUALITY CONTROL***

...OBSERVATIONS IN AND NEAR THE EASTERN PANHANDLE OF NEBRASKA...

CITY           SKY/WX    TMP DP  RH WIND       PRES   REMARKS
PINE RIDGE     CLOUDY    67  54  63 N10       30.23S HAZE
CHADRON        CLOUDY    67  56  67 N8        30.24F HAZE
ALLIANCE       PTSUNNY   67  55  65 N17       30.23R HAZE
SIDNEY         PTSUNNY   69  55  60 N13G23    30.24R HAZE
WHITECLAY        N/A     66  53  63 S10         N/A
CRESCENT LAKE    N/A     68  53  58 NE14G21     N/A
BIG SPRINGS      N/A     73  55  52 NE12        N/A
$$

...OBSERVATIONS IN NORTH CENTRAL NEBRASKA...

CITY           SKY/WX    TMP DP  RH WIND       PRES   REMARKS
VALENTINE      CLOUDY    73  54  51 N14G26    30.15S HAZE
THEDFORD         N/A     72  56  57 N18       30.15R HAZE
AINSWORTH        N/A     72  57  59 N21G30    30.14S HAZE
O`NEILL          N/A     72  58  60 N18       30.07S HAZE
ORD            PTSUNNY   74  58  57 N21G28    30.05R HAZE
BROKEN BOW     MOSUNNY   74  60  61 N18G26    30.08S HAZE
VALENTINE NWR    N/A     70  55  59 N13G23      N/A
SPRINGVIEW       N/A     71  58  64 NW9G17      N/A
HALSEY           N/A     69  55  62 N12G23      N/A
BREWSTER         N/A     77  59  52 N20         N/A
ROSE             N/A     83  69  62 NE22        N/A
NEWPORT          N/A     74  57  55 S16         N/A
CHAMBERS         N/A     75  57  53 E9          N/A
EWING            N/A     71  62  73 N12G18      N/A
$$

...OBSERVATIONS IN SOUTHWEST NEBRASKA AND FAR NORTHEAST COLORADO...

CITY           SKY/WX    TMP DP  RH WIND       PRES   REMARKS
WRAY           CLOUDY    68  56  65 N15G22    30.19R
HOLYOKE        FAIR      73  55  53 N17G23    30.20R
IMPERIAL       CLOUDY    71  56  58 N17       30.16R
OGALLALA       MOSUNNY   73  56  55 N15G26    30.17R HAZE
NORTH PLATTE   CLOUDY    71  57  61 NE14G24   30.13R
MCCOOK         CLOUDY    70  60  70 N24G33    30.09R
LEXINGTON      CLOUDY    71  63  73 N18G29    30.08R
PAXTON           N/A     71  61  70 N13         N/A
GOTHENBURG       N/A     70  56  61 N12         N/A
CALLAWAY         N/A     71  63  76 N13         N/A
$$

...NORTH PLATTE AREA...

CITY           SKY/WX    TMP DP  RH WIND       PRES   REMARKS
AIRPORT        CLOUDY    71  57  61 NE14G24   30.13R
DOWNTOWN         N/A     70  59  67 N12G20      N/A
HILLCREST        N/A     70  59  67 NE20G26     N/A
$$

...SOME WEATHER OBSERVATIONS FROM AROUND THE REGION...

CITY           SKY/WX    TMP DP  RH WIND       PRES   REMARKS
DENVER         CLOUDY    59  57  93 N9        30.30R FOG
LARAMIE        CLOUDY    57  51  80 NE3       30.35S
CHEYENNE       FOG       54  53  97 NE8       30.33R VSB 1
SCOTTSBLUFF    CLOUDY    66  53  63 N8        30.26R HAZE
RAPID CITY     CLOUDY    66  54  65 N8        30.24S
PIERRE         SUNNY     74  53  48 N20       30.12R
WINNER         FAIR      75  53  46 N18       30.12S HAZE
SIOUX FALLS    CLOUDY    70  62  76 N17G26    29.99R HAZE
OMAHA          LGT RAIN  75  73  93 N6        29.91R FOG
GRAND ISLAND   CLOUDY    73  64  73 N17       30.01R
KANSAS CITY    PTSUNNY   86  76  71 S16G23    29.89S HX  96
WICHITA        PTSUNNY   92  69  47 S21G28    29.87F HX  97
HAYS           CLOUDY    73  64  73 N21       29.97R
LIBERAL        MOSUNNY   82  64  54 N16G26    30.02S
GOODLAND       CLOUDY    65  59  81 N17G26    30.15R
$$



USA.gov is the U.S. government's official web portal to all federal, state and local government web resources and services.